Location: ??????
(55.2000°N, 38.3000°E)
Time: 18:24:40
(UTC+00:00)

Cosmos 968 Rocket - Pass Details

Date: 15 November 2025
Orbit: 735 x 766 km, 74.0° (Epoch: 14 December)

Event Time Altitude Azimuth Distance (km) Brightness Sun altitude
Exits shadow 02:25:20 22° 335° (NNW) 1,649 5.0 -21.6°
Maximum altitude 02:28:50 81° 61° (ENE) 783 3.5 -21.1°
Drops below altitude 10° 02:34:05 10° 150° (SSE) 2,303 6.4 -20.4°
Sets 02:36:27 0° 151° (SSE) 3,226 7.2 -20.1°
